Flag for Barbados Weather past 2 weeks in Bridgetown, Barbados

Now
81 °F

Passing clouds.


Feels Like: 87 °F
Forecast: 82 / 88 °F
Wind: 10 mph from Northeast

Location: Grantley Adams

Current Time: Aug 31, 2015 at 3:30:50 AM

Latest Report: Aug 31, 2015 at 2:00 AM


Visibility: N/A

Pressure: 29.95 "Hg

Humidity: 89%

Dew point: 77 °F

Location of BridgetownLocation

Historic Weather in Bridgetown — Graph

°F

Bridgetown temperature yesterday

Maximum temperature yesterday: 88 °F (at 12:00 PM)
Minimum temperature yesterday: 79 °F (at 12:00 AM)
Average temperature yesterday: 83 °F

Past Weeks' High & Low Weather Summary

 TemperatureHumidityPressure
High90 °F (Aug 20, 1:00 PM)100% (Aug 26, 5:00 AM)30.01 "Hg (Aug 26, 5:00 AM)
Low75 °F (Aug 24, 5:00 AM)59% (Aug 16, 12:00 PM)29.83 "Hg (Aug 23, 4:00 AM)
Average83 °F78%29.92 "Hg
* Reported Aug 16 2:00 AM — Aug 31 2:00 AM, Bridgetown, Weather by CustomWeather, © 2015

Note: Actual official high and low records may vary slightly from our data, if they occured in-between our weather recording intervals... More about our weather records

Advertising

Bridgetown weather history for previous 24 hours

 ConditionsComfort  
Time TempWeatherWind HumidityBarometerVisibility
2:00 AM
Mon, Aug 31
81 °FPassing clouds.10 mph89%29.95 "HgN/A
1:00 AM81 °FPartly cloudy.10 mph89%29.98 "HgN/A
12:00 AM81 °FPassing clouds.9 mph89%29.98 "HgN/A
11:00 PM
Sun, Aug 30
81 °FPassing clouds.8 mph84%29.98 "HgN/A
10:00 PM81 °FPassing clouds.21 mph89%30.01 "HgN/A
9:00 PM81 °FPassing clouds.13 mph79%29.98 "HgN/A
8:00 PM81 °FPassing clouds.14 mph89%29.98 "HgN/A
7:00 PM81 °FPassing clouds.10 mph89%29.95 "HgN/A
6:00 PM81 °FPartly sunny.12 mph89%29.95 "HgN/A
5:00 PM82 °FBroken clouds.15 mph84%29.95 "HgN/A
4:00 PM84 °FBroken clouds.14 mph79%29.95 "HgN/A
3:00 PM88 °FScattered showers. Broken clouds.16 mph70%29.95 "HgN/A
2:00 PM88 °FScattered showers. Scattered clouds.16 mph70%29.95 "HgN/A
1:00 PM88 °FScattered clouds.15 mph70%29.98 "HgN/A
12:00 PM88 °FScattered showers. Scattered clouds.17 mph79%29.98 "HgN/A
11:00 AM86 °FScattered showers. Scattered clouds.21 mph79%30.01 "HgN/A
10:00 AM81 °FScattered showers. Partly sunny.10 mph89%30.01 "HgN/A
9:00 AM84 °FScattered showers. Scattered clouds.17 mph84%29.98 "HgN/A
8:00 AM86 °FPassing clouds.18 mph66%29.98 "HgN/A
7:00 AM82 °FScattered clouds.16 mph89%29.95 "HgN/A
6:00 AM82 °FScattered showers. Scattered clouds.17 mph84%29.92 "HgN/A
5:00 AM82 °FPassing clouds.18 mph84%29.92 "HgN/A
4:00 AM81 °FPassing clouds.14 mph89%29.92 "HgN/A
3:00 AM82 °FPassing clouds.16 mph89%29.92 "HgN/A
Weather by CustomWeather, © 2015

See weather overviewHow to use our weather pages